Location: Eimen
(51.8766°N, 9.7806°E)
Time: 11:31:05
(UTC+00:00)

Cosmos 1315 Rocket - Pass Details

Date: 23 May 2024
Orbit: 515 x 542 km, 81.2° (Epoch: 23 June)

Event Time Altitude Azimuth Distance (km) Brightness Sun altitude
Exits shadow 01:39:59 16° 222° (SW) 1,409 4.3 -11.1°
Maximum altitude 01:42:44 42° 288° (WNW) 766 3.4 -10.9°
Drops below altitude 10° 01:46:30 10° 1° (N) 1,792 6.4 -10.5°
Sets 01:48:46 0° 9° (N) 2,693 7.6 -10.3°
